This is the latest recevied weather packets stored in our database for station/object N5MDT. If no packets are shown the sender has not sent any weather packets the latest 10 day(s).
| Time | Temp. | Humidity | Pressure | Rain* | Wind** | Luminosity | Snow |
|---|---|---|---|---|---|---|---|
| 1777769901 | 25° C | 53% | 1020.1 hPa | 0 mm | - | - | - |
| 1777768731 | 26.11° C | 51% | 1020 hPa | 0 mm | - | - | - |
| 1777768100 | 26.67° C | 49% | 1019.8 hPa | 0 mm | - | - | - |
| 1777767500 | 27.22° C | 47% | 1019.8 hPa | 0 mm | - | - | - |
| 1777766900 | 27.78° C | 45% | 1019.7 hPa | 0 mm | - | - | - |
| 1777765100 | 28.89° C | 45% | 1019.5 hPa | 0 mm | - | - | - |
| 1777764530 | 28.89° C | 43% | 1019.5 hPa | 0 mm | - | - | - |
| 1777763930 | 29.44° C | 46% | 1019.5 hPa | 0 mm | - | - | - |
| 1777763300 | 29.44° C | 46% | 1019.5 hPa | 0 mm | - | - | - |
| 1777760929 | 27.78° C | 47% | 1019.6 hPa | 0 mm | - | - | - |
| 1777760329 | 27.78° C | 48% | 1019.6 hPa | 0 mm | - | - | - |
| 1777759729 | 27.78° C | 49% | 1019.6 hPa | 0 mm | - | - | - |
| 1777759129 | 27.78° C | 49% | 1019.7 hPa | 0 mm | - | - | - |
| 1777758499 | 27.78° C | 50% | 1019.8 hPa | 0 mm | - | - | - |
| 1777757899 | 27.78° C | 49% | 1019.9 hPa | 0 mm | - | - | - |
| 1777757329 | 27.78° C | 50% | 1019.9 hPa | 0 mm | - | - | - |
| 1777754928 | 26.67° C | 55% | 1020 hPa | 0 mm | - | - | - |
| 1777753698 | 25.56° C | 56% | 1020.1 hPa | 0 mm | - | - | - |
| 1777752528 | 25° C | 58% | 1020.4 hPa | 0 mm | - | - | - |
| 1777751913 | 25° C | 58% | 1020.6 hPa | 0 mm | - | - | - |
| 1777751328 | 24.44° C | 58% | 1020.5 hPa | 0 mm | - | - | - |
| 1777750728 | 23.89° C | 61% | 1020.6 hPa | 0 mm | - | - | - |
| 1777750113 | 23.33° C | 61% | 1020.8 hPa | 0 mm | - | - | - |
| 1777749527 | 23.33° C | 61% | 1020.9 hPa | 0 mm | - | - | - |
| 1777747727 | 22.78° C | 63% | 1021.2 hPa | 0 mm | - | - | - |
* Rain latest hour (hover to see other rain measurements)
** Current wind speed in m/s (hover to see current wind gust speed)